Main page
METAR-TAF:

METAR-TAF

Airports :

Oil platform

K13-a, Netherlands

latitude: 53-13-04N, longitude: 3-13-13E, elevation: 31 m

Current weather observation

The report was made 13 minutes ago, at 21:55 UTC
Wind 7 kt from the West
Temperature 5°C
Humidity 75%
Pressure 997 hPa

METAR: EHJR 222155Z AUTO 27007KT //// // ///////// 05/01 Q0997 RE// W///H11

Time: 23:08 (22:08 UTC)


TAF: missing

Weather observations and forecasts of more than 4000 airports (METAR and TAF reports).

The available stations are represented by yellow and red dots on the map.

Hover mouse over dot to see the name of the station.

Then click to see weather observations and forecasts.

To change the map : click on the green buttons with a black cross to zoom in, on the green button with a dash to zoom out, or on the green arrows for adjacent maps.


METAR-TAF: